Tracking 34410 objects as of 16-Jun-2026
HD Live streaming from Space Station
objects crossing your sky now

STARLINK-31235

Track STARLINK-31235 now!
10-day predictions
STARLINK-31235 is classified as:


NORAD ID: 59038
Int'l Code: 2024-038R
Perigee: 489.0 km
Apogee: 491.4 km
Inclination: 43.0 °
Period: 94.3 minutes
Semi major axis: 6861 km
RCS: Unknown
Launch date: February 25, 2024
Source: United States (US)
Launch site: AIR FORCE EASTERN TEST RANGE (AFETR)
Your satellite tracking list
Your tracking list is empty




NASA's NSSDC Master Catalog

Two Line Element Set (TLE):
1 59038U 24038R   26167.32353635  .00000531  00000-0  28823-4 0  9990
2 59038  43.0038 186.4776 0001723 274.2897  85.7758 15.27580115129889
Source of the keplerian elements: AFSPC